• Em Portugal
  • Lista de países
  • Para 7 dias
  • Temperatura da água
  • Mapas de satélite
  • Mapa do tempo
  • Widgets de tempo
  • user-avatar
    Iniciar Sessão

    Previsão horária em Sofia

    Hoje, 14 Novembro, Quarta-feira

    Tempo Temperatura Precipitação Vento Pressão Humidade
    00:00 +7°C° 0 mm 1 m/s 718 mmHg 78%
    01:00 +7°C° 0 mm 1 m/s 718 mmHg 78%
    02:00 +7°C° 0 mm 1 m/s 718 mmHg 77%
    03:00 +7°C° 0 mm 1 m/s 717 mmHg 77%
    04:00 +7°C° 0 mm 1 m/s 717 mmHg 77%
    05:00 +6°C° 0 mm 1 m/s 717 mmHg 77%
    06:00 +7°C° 0 mm 1 m/s 717 mmHg 75%
    07:00 +7°C° 0 mm 1 m/s 717 mmHg 73%
    08:00 +7°C° 0 mm 1 m/s 717 mmHg 71%
    09:00 +9°C° 0 mm 1 m/s 717 mmHg 66%
    10:00 +10°C° 0 mm 2 m/s 717 mmHg 60%
    11:00 +13°C° 0 mm 2 m/s 717 mmHg 54%
    12:00 +13°C° 0 mm 2 m/s 717 mmHg 56%
    13:00 +13°C° 0 mm 2 m/s 716 mmHg 59%
    14:00 +13°C° 0 mm 3 m/s 716 mmHg 61%
    15:00 +13°C° 0 mm 2 m/s 716 mmHg 66%
    16:00 +12°C° 0 mm 2 m/s 715 mmHg 70%
    17:00 +10°C° 0 mm 2 m/s 715 mmHg 74%
    18:00 +9°C° 0 mm 2 m/s 715 mmHg 79%
    19:00 +8°C° 0 mm 2 m/s 715 mmHg 84%
    20:00 +8°C° 0 mm 1 m/s 715 mmHg 88%
    21:00 +7°C° 0 mm 1 m/s 715 mmHg 89%
    22:00 +7°C° 0 mm 1 m/s 715 mmHg 89%
    23:00 +7°C° 0 mm 1 m/s 715 mmHg 90%

    Amanhã, 15 Novembro, Quinta-feira

    Tempo Temperatura Precipitação Vento Pressão Humidade
    00:00 +7°C° 0 mm 1 m/s 715 mmHg 88%
    01:00 +7°C° 0 mm 1 m/s 715 mmHg 87%
    02:00 +6°C° 0 mm 2 m/s 715 mmHg 85%
    03:00 +6°C° 0 mm 2 m/s 715 mmHg 86%
    04:00 +6°C° 0 mm 2 m/s 715 mmHg 86%
    05:00 +5°C° 0 mm 2 m/s 714 mmHg 87%
    06:00 +5°C° 0.2 mm 2 m/s 715 mmHg 87%
    07:00 +4°C° 0.2 mm 3 m/s 715 mmHg 86%
    08:00 +4°C° 0.2 mm 3 m/s 716 mmHg 86%
    09:00 +5°C° 0.1 mm 3 m/s 716 mmHg 81%
    10:00 +7°C° 0.1 mm 3 m/s 716 mmHg 75%
    11:00 +7°C° 0.1 mm 3 m/s 716 mmHg 70%
    12:00 +8°C° 0 mm 3 m/s 716 mmHg 66%
    13:00 +8°C° 0 mm 3 m/s 716 mmHg 61%
    14:00 +9°C° 0 mm 3 m/s 715 mmHg 57%
    15:00 +8°C° 0 mm 2 m/s 715 mmHg 61%
    16:00 +7°C° 0 mm 2 m/s 715 mmHg 64%
    17:00 +7°C° 0 mm 1 m/s 715 mmHg 68%
    18:00 +6°C° 0 mm 1 m/s 715 mmHg 73%
    19:00 +5°C° 0 mm 1 m/s 716 mmHg 78%
    20:00 +5°C° 0 mm 1 m/s 716 mmHg 82%
    21:00 +4°C° 0 mm 1 m/s 716 mmHg 83%
    22:00 +4°C° 0 mm 1 m/s 716 mmHg 84%
    23:00 +4°C° 0 mm 1 m/s 716 mmHg 85%

    Depois de amanhã, 16 Novembro, Sexta-feira

    Tempo Temperatura Precipitação Vento Pressão Humidade
    00:00 +4°C° 0 mm 1 m/s 716 mmHg 85%
    01:00 +4°C° 0 mm 1 m/s 716 mmHg 85%
    02:00 +4°C° 0 mm 1 m/s 716 mmHg 85%
    03:00 +4°C° 0 mm 1 m/s 717 mmHg 86%
    04:00 +4°C° 0 mm 1 m/s 717 mmHg 87%
    05:00 +3°C° 0 mm 1 m/s 717 mmHg 88%
    06:00 +3°C° 0 mm 1 m/s 717 mmHg 89%
    07:00 +4°C° 0 mm 1 m/s 717 mmHg 89%
    08:00 +4°C° 0 mm 1 m/s 718 mmHg 89%
    09:00 +4°C° 0 mm 2 m/s 718 mmHg 81%
    10:00 +5°C° 0 mm 2 m/s 718 mmHg 73%
    11:00 +5°C° 0 mm 3 m/s 719 mmHg 65%
    12:00 +5°C° 0 mm 3 m/s 719 mmHg 62%
    13:00 +7°C° 0 mm 3 m/s 718 mmHg 58%
    14:00 +6°C° 0 mm 4 m/s 718 mmHg 55%
    15:00 +5°C° 0 mm 3 m/s 718 mmHg 61%
    16:00 +4°C° 0 mm 3 m/s 718 mmHg 66%
    17:00 +3°C° 0 mm 3 m/s 718 mmHg 71%
    18:00 +3°C° 0 mm 2 m/s 718 mmHg 75%
    19:00 +2°C° 0 mm 2 m/s 718 mmHg 79%
    20:00 +2°C° 0 mm 2 m/s 719 mmHg 83%
    21:00 +1°C° 0 mm 2 m/s 719 mmHg 84%
    22:00 +1°C° 0 mm 2 m/s 719 mmHg 85%
    23:00 +1°C° 0 mm 1 m/s 719 mmHg 86%

    17 Novembro, Sábado

    Tempo Temperatura Precipitação Vento Pressão Humidade
    00:00 +1°C° 0 mm 1 m/s 719 mmHg 84%
    01:00 +1°C° 0 mm 1 m/s 719 mmHg 82%
    02:00 0°C° 0 mm 1 m/s 719 mmHg 80%
    03:00 0°C° 0 mm 1 m/s 719 mmHg 79%
    04:00 0°C° 0 mm 1 m/s 719 mmHg 77%
    05:00 0°C° 0 mm 1 m/s 719 mmHg 75%
    06:00 0°C° 0 mm 1 m/s 719 mmHg 73%
    07:00 0°C° 0 mm 1 m/s 719 mmHg 71%
    08:00 0°C° 0 mm 1 m/s 719 mmHg 68%
    09:00 +1°C° 0 mm 2 m/s 719 mmHg 61%
    10:00 +2°C° 0 mm 2 m/s 720 mmHg 53%
    11:00 +3°C° 0 mm 3 m/s 720 mmHg 45%
    12:00 +4°C° 0 mm 3 m/s 719 mmHg 45%
    13:00 +4°C° 0 mm 3 m/s 719 mmHg 44%
    14:00 +5°C° 0 mm 3 m/s 718 mmHg 43%
    15:00 +3°C° 0 mm 3 m/s 718 mmHg 49%
    16:00 +3°C° 0 mm 2 m/s 718 mmHg 55%
    17:00 +2°C° 0 mm 2 m/s 718 mmHg 60%
    18:00 +1°C° 0 mm 2 m/s 718 mmHg 65%
    19:00 -1°C° 0 mm 2 m/s 718 mmHg 70%
    20:00 0°C° 0 mm 1 m/s 718 mmHg 74%
    21:00 0°C° 0 mm 1 m/s 718 mmHg 76%
    22:00 0°C° 0 mm 1 m/s 718 mmHg 78%
    23:00 -1°C° 0 mm 1 m/s 718 mmHg 80%

    18 Novembro, Domingo

    Tempo Temperatura Precipitação Vento Pressão Humidade
    00:00 -1°C° 0 mm 1 m/s 718 mmHg 81%
    01:00 -1°C° 0 mm 1 m/s 718 mmHg 82%
    02:00 -1°C° 0 mm 1 m/s 718 mmHg 83%
    03:00 -1°C° 0 mm 1 m/s 717 mmHg 84%
    04:00 -1°C° 0 mm 1 m/s 717 mmHg 85%
    05:00 -1°C° 0 mm 1 m/s 717 mmHg 87%
    06:00 -1°C° 0 mm 1 m/s 716 mmHg 86%
    07:00 -1°C° 0 mm 1 m/s 716 mmHg 86%
    08:00 -1°C° 0 mm 1 m/s 716 mmHg 85%
    09:00 +1°C° 0 mm 1 m/s 716 mmHg 76%
    10:00 +2°C° 0 mm 2 m/s 716 mmHg 67%
    11:00 +4°C° 0 mm 2 m/s 716 mmHg 58%
    12:00 +4°C° 0 mm 2 m/s 715 mmHg 56%
    13:00 +5°C° 0 mm 2 m/s 714 mmHg 54%
    14:00 +6°C° 0 mm 2 m/s 713 mmHg 52%
    15:00 +5°C° 0 mm 2 m/s 713 mmHg 58%
    16:00 +4°C° 0 mm 2 m/s 712 mmHg 64%
    17:00 +2°C° 0 mm 2 m/s 711 mmHg 70%
    18:00 +3°C° 0 mm 1 m/s 711 mmHg 73%
    19:00 +2°C° 0 mm 1 m/s 711 mmHg 76%
    20:00 +2°C° 0 mm 1 m/s 710 mmHg 79%
    21:00 +2°C° 0.2 mm 1 m/s 710 mmHg 81%
    22:00 +2°C° 0.2 mm 1 m/s 710 mmHg 82%
    23:00 +2°C° 0.2 mm 1 m/s 709 mmHg 83%

    19 Novembro, Segunda-feira

    Tempo Temperatura Precipitação Vento Pressão Humidade
    00:00 +2°C° 0.2 mm 1 m/s 709 mmHg 85%
    01:00 +2°C° 0.2 mm 1 m/s 708 mmHg 86%
    02:00 +2°C° 0.2 mm 1 m/s 708 mmHg 87%
    03:00 +2°C° 0.3 mm 1 m/s 707 mmHg 88%
    04:00 +2°C° 0.3 mm 1 m/s 706 mmHg 90%
    05:00 +2°C° 0.3 mm 1 m/s 706 mmHg 91%
    06:00 +2°C° 0.5 mm 1 m/s 706 mmHg 91%
    07:00 +2°C° 0.5 mm 1 m/s 706 mmHg 91%
    08:00 +2°C° 0.5 mm 1 m/s 706 mmHg 90%
    09:00 +2°C° 0.5 mm 1 m/s 706 mmHg 89%
    10:00 +2°C° 0.5 mm 2 m/s 706 mmHg 87%
    11:00 +2°C° 0.5 mm 2 m/s 706 mmHg 86%
    12:00 +2°C° 0.6 mm 2 m/s 706 mmHg 86%
    13:00 +2°C° 0.6 mm 2 m/s 705 mmHg 86%
    14:00 +2°C° 0.6 mm 2 m/s 705 mmHg 86%
    15:00 +2°C° 0.8 mm 2 m/s 705 mmHg 88%
    16:00 +1°C° 0.8 mm 2 m/s 706 mmHg 91%
    17:00 +1°C° 0.8 mm 2 m/s 706 mmHg 93%
    18:00 +2°C° 0.6 mm 1 m/s 706 mmHg 93%
    19:00 +1°C° 0.6 mm 1 m/s 706 mmHg 93%
    20:00 +1°C° 0.6 mm 1 m/s 707 mmHg 94%
    21:00 +1°C° 0.2 mm 1 m/s 707 mmHg 94%
    22:00 +1°C° 0.2 mm 1 m/s 708 mmHg 93%
    23:00 0°C° 0.2 mm 1 m/s 708 mmHg 93%
    Mostrar mais